Weather Roundup
Issued by NWS

Home | Current Version | Previous Version | Text Only | Print | Product List | Glossary On
Versions: 1 2 3 4 5 6 7 8 9 10 11 12 13 14 15 16 17 18 19 20 21 22 23 24 25 26 27 28 29 30 31 32 33 34 35 36 37 38 39 40 41 42 43 44 45 46 47 48 49 50
997
NZUS93 KARX 192010
HRRWXR

CURRENT HOURLY OBSERVATIONS ACROSS
MUCH OF THE UPPER MISSISSIPPI VALLEY
NATIONAL WEATHER SERVICE LA CROSSE WI
200 PM CST MON FEB 19 2018


...SOUTHEAST MINNESOTA...


CITY           SKY/WX    TMP DP  RH WIND       PRES   REMARKS
ROCHESTER      FRZ RAIN  28  27  96 NE17G30   29.71F FOG     WCI  16
ROCHESTER/MAYO CLOUDY    28  28  98 N7        29.74F WCI  21
WINONA         CLOUDY    32  30  93 NE6       29.75F WCI  26
AUSTIN         LGT SNOW  28  27  93 NE9       29.72R WCI  20
ALBERT LEA     CLOUDY    27  25  93 NE12      29.73S FOG     WCI  16
DODGE CENTER   CLOUDY    25  25 100 NE15      29.72F FOG     WCI  12
PRESTON        CLOUDY    32  30  94 NE12      29.70F FOG     WCI  23
OWATONNA       MIX PCPN  27  25  93 N12       29.77R WCI  16
FARIBAULT      MIX PCPN  25  21  86 N16       29.80R WCI  12
$$

...ELSEWHERE IN MINNESOTA...


CITY           SKY/WX    TMP DP  RH WIND       PRES   REMARKS
MINNEAPOLIS    LGT SNOW  22  19  89 NE17G29   29.85F FOG     WCI   8
INTNL FALLS    FAIR      10  -3  55 NE10      30.16F WCI  -4
DULUTH         LGT SNOW  14   8  77 NE18G24   30.02S VSB 3/4 WCI  -3
RED WING       MIX PCPN  27  19  74 E9G18     29.82S WCI  17
REDWOOD FALLS  LGT SNOW  19  14  81 N10G21    29.88F WCI   7
MANKATO        NOT AVBL
WORTHINGTON    LGT SNOW  18  14  86 N18G28    29.80F FOG     WCI   2
FAIRMONT       MIX PCPN  22  20  92 MISG      29.79R FOG
$$

...SOUTHWEST WISCONSIN...


CITY           SKY/WX    TMP DP  RH WIND       PRES   REMARKS
LA CROSSE      CLOUDY    39  31  72 NE9G17    29.73F WCI  33
PRAIRIE DU CHI RAIN      37  36  95 CALM      29.71S
BOSCOBEL       CLOUDY    39  38  96 VRB6      29.72F FOG     WCI  35
LONE ROCK      LGT RAIN  38  38 100 E9        29.73F VSB 1/2 WCI  31
PLATTEVILLE    CLOUDY    37  37 100 E10       29.70R WCI  30
FORT MC COY    CLOUDY    37  32  82 E8        29.76F WCI  31
CAMP DOUGLAS   CLOUDY    39  32  75 E13       29.75F WCI  31
MAUSTON-NEW LI CLOUDY    39  32  76 E8        29.75F WCI  34
VIROQUA        CLOUDY    37  36  95 E13       29.71S WCI  29
WIS DELLS      CLOUDY    37  34  87 E10       29.75R FOG     WCI  30
$$

...ELSEWHERE IN WISCONSIN...


CITY           SKY/WX    TMP DP  RH WIND       PRES   REMARKS
MILWAUKEE      LGT RAIN  38  38 100 NW8       29.81S VSB 1/4 WCI  32
MADISON        LGT RAIN  38  38 100 NE13      29.76S FOG     WCI  30
GREEN BAY      MIX PCPN  29  24  82 NE30      29.88S WCI  13
EAU CLAIRE     FRZ RAIN  24  20  84 NE16G26   29.83F FOG     WCI  11
BLACK RVR FLS  CLOUDY    33  29  85 NE13G18   29.77F HAZE    WCI  24
MEDFORD        MIX PCPN  23  20  87 NE16G23   29.83S WCI  10
WAUSAU         CLOUDY    26  22  84 NE12      29.83F WCI  16
WIS RAPIDS     CLOUDY    33  27  78 E20G26    29.81F WCI  21
MARSHFIELD     FRZ RAIN  30  26  85 NE17G28   29.79F FOG     WCI  18
RICE LAKE      LGT SNOW  22  18  87 NE22      29.89F VSB 1   WCI   6
$$

...NORTHEAST IOWA...


CITY           SKY/WX    TMP DP  RH WIND       PRES   REMARKS
WATERLOO       CLOUDY    36  36 100 E9        29.64F FOG     WCI  29
DUBUQUE        FOG       37  36  96 NE5       29.68S VSB<1/4 WCI  33
DECORAH        FOG       36  36 100 E12G18    29.67F VSB 1   WCI  27
MASON CITY     FRZ RAIN  31  30  96 N17       29.70R VSB 1   WCI  19
CHARLES CITY   CLOUDY    34  34 100 NE15      29.66F FOG     WCI  24
OELWEIN        CLOUDY    36  36 100 NE10      29.66F WCI  28
$$

...ELSEWHERE IN IOWA...


CITY           SKY/WX    TMP DP  RH WIND       PRES   REMARKS
DES MOINES     CLOUDY    35  34  96 NW13      29.71R FOG     WCI  26
IOWA CITY      CLOUDY    60  55  83 S8        29.65F
FORT DODGE     CLOUDY    28  27  96 N12       29.72F FOG     WCI  18
MARSHALLTOWN   FOG       39  39 100 N6        29.64S VSB 1   WCI  35
CEDAR RAPIDS   LGT RAIN  48  48 100 E6        29.63F VSB 1/4
$$

...NORTHERN ILLINOIS...


CITY           SKY/WX    TMP DP  RH WIND       PRES   REMARKS
CHICAGO-OHARE  CLOUDY    53  51  93 SW16G24   29.74S FOG
CHICAGO-MIDWAY CLOUDY    55  54  96 SW14G26   29.76S
MOLINE         CLOUDY    63  57  81 S16G25    29.67R
ROCKFORD       FOG       41  41 100 SE7       29.73F VSB 1/4
PEORIA         CLOUDY    61  57  87 S21       29.77S
$$

NOTE: "FAIR" INDICATES FEW OR NO CLOUDS BELOW 12,000 FEET WITH NO
SIGNIFICANT WEATHER AND/OR OBSTRUCTIONS TO VISIBILITY. WIND
SPEEDS ARE IN MILES-PER-HOUR.




USA.gov is the U.S. government's official web portal to all federal, state and local government web resources and services.